Location: Rodanthe
(35.5920°N, 75.4670°W)
Time: 04:56:57
(UTC-04:00)

ISS - All Passes

Search period start: 20 October 2017 00:00
Search period end: 30 October 2017 00:00
Orbit: 401 x 408 km, 51.6° (Epoch: 20 October)

Date Brightness Start Highest point End Pass type
(mag) Time Alt. Az. Time Alt. Az. Time Alt. Az.
20 Oct - 09:22:31 10° S 09:25:08 23° SE 09:27:45 10° ENE daylight
20 Oct - 10:58:37 10° W 11:01:30 28° NW 11:04:23 10° NNE daylight
20 Oct - 15:53:10 10° N 15:54:41 13° NNE 15:56:11 10° NE daylight
20 Oct - 17:28:17 10° NW 17:31:35 86° NE 17:34:50 10° SE daylight
21 Oct - 08:32:06 10° SE 08:33:03 11° SE 08:34:01 10° ESE daylight
21 Oct - 10:05:57 10° WSW 10:09:08 55° NW 10:12:21 10° NE daylight
21 Oct - 16:36:08 10° NW 16:39:16 40° NE 16:42:23 10° ESE daylight
21 Oct - 18:13:28 10° W 18:15:28 15° SW 18:17:29 10° SSW daylight
22 Oct - 09:13:38 10° SW 09:16:51 66° SE 09:20:05 10° NE daylight
22 Oct - 10:51:40 10° WNW 10:53:37 15° NNW 10:55:36 10° N daylight
22 Oct - 15:44:11 10° NNW 15:46:51 23° NNE 15:49:32 10° E daylight
22 Oct - 17:20:24 10° WNW 17:23:21 31° SW 17:26:17 10° SSE daylight
23 Oct - 08:21:47 10° SSW 08:24:39 29° SE 08:27:32 10° ENE daylight
23 Oct - 09:58:25 10° W 10:01:07 24° NNW 10:03:49 10° NNE daylight
23 Oct - 14:52:26 10° N 14:54:20 14° NNE 14:56:14 10° ENE daylight
23 Oct - 16:27:52 10° NW 16:31:07 71° SW 16:34:22 10° SE daylight
24 Oct - 07:30:41 10° SSE 07:32:30 14° SE 07:34:20 10° E daylight
24 Oct - 09:05:34 10° WSW 09:08:41 43° NW 09:11:49 10° NE daylight
24 Oct - 15:35:36 10° NW 15:38:48 52° NE 15:42:00 10° ESE daylight
24 Oct - 17:13:38 10° WSW 17:14:55 12° SW 17:16:13 10° SSW daylight
25 Oct - 08:13:06 10° SW 08:16:20 88° SSE 08:19:36 10° NE daylight
25 Oct - 09:51:38 10° NW 09:53:13 13° NNW 09:54:48 10° N daylight
25 Oct - 14:43:32 10° NNW 14:46:23 27° NE 14:49:14 10° E daylight
25 Oct - 16:20:03 10° WNW 16:22:47 24° SW 16:25:29 10° S daylight
26 Oct - 07:21:01 10° SSW 07:24:04 38° SE 07:27:08 10° ENE daylight
26 Oct - 08:58:09 10° W 09:00:38 20° NNW 09:03:07 10° NNE daylight
26 Oct - 13:51:39 10° NNW 13:53:52 17° NNE 13:56:04 10° ENE daylight
26 Oct - 15:27:21 10° WNW 15:30:33 53° SW 15:33:43 10° SSE daylight
27 Oct - 06:29:32 10° S 06:31:52 18° SE 06:34:11 10° E visible
27 Oct - 08:05:08 10° WSW 08:08:08 34° NW 08:11:09 10° NNE daylight
27 Oct - 13:00:13 10° N 13:01:14 11° NNE 13:02:15 10° NE daylight
27 Oct - 14:34:58 10° NW 14:38:13 68° NE 14:41:28 10° SE daylight
28 Oct - 07:12:29 10° SW 07:15:43 71° NW 07:18:57 10° NE daylight
28 Oct - 08:51:36 10° NW 08:52:41 11° NNW 08:53:46 10° N daylight
28 Oct - 13:42:47 10° NNW 13:45:48 33° NE 13:48:47 10° ESE daylight
28 Oct - 15:19:41 10° W 15:22:05 19° SW 15:24:29 10° S daylight
29 Oct - 06:20:13 10° SSW 06:23:23 51° SE 06:26:33 10° ENE visible
29 Oct - 07:57:49 10° WNW 08:00:03 17° NNW 08:02:17 10° NNE daylight
29 Oct - 12:50:48 10° NNW 12:53:16 19° NNE 12:55:44 10° E daylight
29 Oct - 14:26:46 10° WNW 14:29:50 40° SW 14:32:55 10° SSE daylight
